Location: Juzet
(42.9779°N, 0.7597°E)
Time: 08:40:35
(UTC+00:00)

Cosmos 1833 Rocket - Pass Details

Date: 14 July 2020
Orbit: 832 x 840 km, 71.0° (Epoch: 04 August)

Event Time Altitude Azimuth Distance (km) Brightness Sun altitude
Exits shadow 02:26:41 28° 231° (SW) 1,513 3.5 -17.4°
Maximum altitude 02:29:31 57° 298° (WNW) 982 3.0 -17.1°
Drops below altitude 10° 02:35:03 10° 17° (NNE) 2,453 6.2 -16.5°
Sets 02:37:33 0° 22° (NNE) 3,392 7.4 -16.3°
